CAPE
0 0 0 0 0 0 0 0 0 0 0 0 0 0 0 0 0 0 0 0 0 1 4 5 10 4 31 42 29 10 17 13 42 48 36 36 30 37 32 21 11 5 14
0 0 0 0 0 0 0 0 0 0 0 0 0 0 0 0 4 2 0 0 0 0 0 1 1 4 12 6 6 6 1 4 8 24 18 20 20 18 23 29 23 22 31
0 0 0 0 0 0 0 0 0 0 0 0 0 0 0 1 0 0 0 0 0 0 0 0 0 0 0 0 6 7 2 2 3 1 8 7 4 10 9 32 34 42 46
0 0 0 0 0 0 0 0 0 0 0 0 0 0 0 0 0 0 0 0 0 0 0 0 0 0 0 0 0 0 0 0 0 0 2 1 0 0 4 30 31 30 30
0 0 0 0 0 0 0 0 0 0 0 0 0 0 0 0 0 0 0 0 0 0 0 0 0 0 0 0 0 0 0 0 0 0 0 0 0 0 0 0 0 10 9
0 0 0 0 0 0 0 0 0 0 0 0 0 0 0 0 0 0 0 0 0 0 0 0 0 0 0 0 0 0 0 0 0 0 0 1 0 0 0 0 1 2 4
0 0 0 0 0 0 0 0 0 0 0 0 0 0 0 0 0 0 0 0 0 0 0 0 0 0 0 0 0 0 0 0 0 0 0 0 0 1 0 0 3 3 6
0 0 0 0 0 0 0 0 0 0 0 0 0 0 0 0 0 0 0 0 0 0 0 0 0 0 0 0 0 0 0 0 0 0 0 0 0 0 2 2 1 2 4
0 0 0 0 0 0 0 0 0 0 0 0 0 0 0 0 0 0 0 0 0 0 0 0 0 0 0 0 0 0 0 0 0 0 0 0 0 0 1 1 2 2 1
0 0 0 0 0 0 0 0 0 0 0 0 0 0 0 0 0 0 0 0 0 0 0 0 0 0 0 0 0 0 0 0 0 0 0 0 0 1 3 4 2 1 1
0 0 0 0 0 0 0 0 0 0 0 0 0 0 0 0 0 0 0 0 0 0 0 0 0 0 0 0 0 0 0 0 0 0 0 0 0 1 6 6 4 2 1
0 0 0 0 0 0 0 0 0 0 0 0 0 0 0 0 0 0 0 0 0 0 0 0 0 0 0 0 0 0 0 0 0 0 0 0 0 0 2 5 6 3 3
0 0 0 0 0 0 0 0 0 0 0 0 0 0 0 0 0 0 0 0 0 0 0 0 0 0 0 0 0 0 0 0 0 0 0 0 0 0 0 0 2 3 2
0 0 0 0 0 0 0 0 0 0 0 0 0 0 0 0 0 0 0 0 0 0 0 0 0 0 0 0 0 0 0 0 0 0 0 0 0 0 0 0 0 0 0
0 0 0 0 0 0 0 0 0 0 0 0 0 0 0 0 0 0 0 0 0 0 0 0 0 0 0 0 0 0 0 0 0 0 0 0 0 0 0 0 0 0 0
0 0 0 0 0 0 0 0 0 0 0 0 0 0 0 0 0 0 0 0 0 0 0 0 0 0 0 0 0 0 0 0 0 0 0 0 0 0 0 0 0 0 0
0 0 0 0 0 0 0 0 0 0 0 0 0 0 0 0 0 0 0 0 0 0 0 0 0 0 0 0 0 0 0 0 0 0 0 0 0 0 0 0 0 0 0
0 0 0 0 0 0 0 0 0 0 0 0 0 0 0 0 0 0 0 0 0 0 0 0 0 0 0 0 0 0 0 0 0 0 0 0 0 0 0 0 1 1 0
0 0 0 0 0 0 0 0 0 0 0 0 0 0 0 0 0 0 0 0 0 0 0 0 0 0 0 0 0 0 0 0 0 0 0 0 0 0 0 0 1 2 4
0 0 0 0 0 0 0 0 0 0 0 0 0 0 0 0 0 0 0 0 0 0 0 0 0 0 0 0 0 0 0 0 0 0 0 0 0 0 0 1 1 0 2
0 0 0 0 0 0 0 0 0 0 0 0 0 0 0 0 0 0 0 0 0 0 0 0 0 0 0 0 0 0 1 0 0 0 0 0 0 0 0 0 0 0 0
0 0 0 0 0 0 0 0 0 0 0 0 0 0 0 0 0 0 0 0 0 0 0 0 5 4 1 6 7 2 3 4 3 3 0 0 0 0 0 0 0 0 0
0 0 0 0 0 0 0 0 0 0 0 0 0 0 0 0 0 0 0 0 0 0 0 2 2 0 1 1 4 1 1 0 3 0 1 0 0 0 0 0 0 0 0
0 0 0 0 0 0 0 0 0 0 0 0 0 0 0 0 0 0 0 0 0 0 0 0 0 0 0 0 0 10 26 23 21 7 10 23 7 0 0 0 0 0 0
0 0 0 0 0 0 0 0 0 0 0 0 0 0 0 0 0 0 0 0 0 0 2 8 10 14 19 14 15 31 16 7 8 2 2 4 1 3 0 0 0 0 0
0 0 0 0 0 0 0 0 0 0 0 0 0 0 0 0 9 15 4 2 0 0 1 0 6 10 4 0 1 7 16 11 15 10 0 1 0 0 0 0 0 0 0
CIN
-0 -0 -0 -0 -0 -0 -0 -0 -0 -0 -0 -0 -0 -0 -0 -0 -0 -0 -0 -5 -0 -0 -0 -0 -0 -0 -3 -0 -1 -3 -4 -3 -1 -0 -1 -3 -6 -1 -0 -1 -0 -0 -0
-0 -0 -0 -0 -0 -0 -0 -0 -0 -0 -0 -0 -0 -0 -0 -0 -19 -8 -0 -0 -0 -0 -0 -0 -0 -0 -0 -0 -0 -0 -0 -0 -1 -2 -3 -4 -6 -3 -4 -3 -4 -1 -1
-0 -0 -0 -0 -0 -0 -0 -0 -0 -0 -0 -0 -0 -0 -0 -1 -2 -0 -0 -0 -0 -0 -0 -0 -0 -0 -0 -0 -0 -0 -0 -0 -0 -0 -1 -1 -2 -0 -0 -4 -3 -1 -0
-0 -0 -0 -0 -0 -0 -0 -0 -0 -0 -0 -0 -0 -0 -0 -0 -0 -0 -0 -0 -0 -0 -0 -0 -0 -0 -0 -0 -0 -0 -0 -0 -0 -0 -0 -0 -0 -0 -0 -3 -4 -5 -1
-0 -0 -0 -0 -0 -0 -0 -0 -0 -0 -0 -0 -0 -0 -0 -0 -0 -0 -0 -0 -0 -0 -0 -0 -0 -0 -0 -0 -0 -0 -0 -0 -0 -0 -0 -0 -0 -0 -0 -0 -0 -2 -3
-0 -0 -0 -0 -0 -0 -0 -0 -0 -0 -0 -0 -0 -0 -0 -0 -0 -0 -0 -0 -0 -0 -0 -0 -0 -0 -0 -0 -0 -0 -0 -0 -0 -0 -0 -0 -0 -0 -0 -0 -0 -0 -0
-0 -0 -0 -0 -0 -0 -0 -0 -0 -0 -0 -0 -0 -0 -0 -0 -0 -0 -0 -0 -0 -0 -0 -0 -0 -0 -0 -0 -0 -0 -0 -0 -0 -0 -0 -0 -0 -0 -0 -0 -0 -0 -0
-0 -0 -0 -0 -0 -0 -0 -0 -0 -0 -0 -0 -0 -0 -0 -0 -0 -0 -0 -0 -0 -0 -0 -0 -0 -0 -0 -0 -0 -0 -0 -0 -0 -0 -0 -0 -0 -0 -0 -0 -0 -0 -0
-0 -0 -0 -0 -0 -0 -0 -0 -0 -0 -0 -0 -0 -0 -0 -0 -0 -0 -0 -0 -0 -0 -0 -0 -0 -0 -0 -0 -0 -0 -0 -0 -0 -0 -0 -0 -0 -0 -0 -0 -0 -0 -0
-0 -0 -0 -0 -0 -0 -0 -0 -0 -0 -0 -0 -0 -0 -0 -0 -0 -0 -0 -0 -0 -0 -0 -0 -0 -0 -0 -0 -0 -0 -0 -0 -0 -0 -0 -0 -0 -0 -0 -0 -0 -0 -0
-0 -0 -0 -0 -0 -0 -0 -0 -0 -0 -0 -0 -0 -0 -0 -0 -0 -0 -0 -0 -0 -0 -0 -0 -0 -0 -0 -0 -0 -0 -0 -0 -0 -0 -0 -0 -0 -0 -0 -0 -0 -0 -0
-0 -0 -0 -0 -0 -0 -0 -0 -0 -0 -0 -0 -0 -0 -0 -0 -0 -0 -0 -0 -0 -0 -0 -0 -0 -0 -0 -0 -0 -0 -0 -0 -0 -0 -0 -0 -0 -0 -0 -0 -0 -0 -0
-0 -0 -0 -0 -0 -0 -0 -0 -0 -0 -0 -0 -0 -0 -0 -0 -0 -0 -0 -0 -0 -0 -0 -0 -0 -0 -0 -0 -0 -0 -0 -0 -0 -0 -0 -0 -0 -0 -0 -0 -0 -0 -0
-0 -0 -0 -0 -0 -0 -0 -0 -0 -0 -0 -0 -0 -0 -0 -0 -0 -0 -0 -0 -0 -0 -0 -0 -0 -0 -0 -0 -0 -0 -0 -0 -0 -0 -0 -0 -0 -0 -0 -0 -0 -0 -0
-0 -0 -0 -0 -0 -0 -0 -0 -0 -0 -0 -0 -0 -0 -0 -0 -0 -0 -0 -0 -0 -0 -0 -0 -0 -0 -0 -0 -0 -0 -0 -0 -0 -0 -0 -0 -0 -0 -0 -0 -0 -0 -0
-0 -0 -0 -0 -0 -0 -0 -0 -0 -0 -0 -0 -0 -0 -0 -0 -0 -0 -0 -0 -0 -0 -0 -0 -0 -0 -0 -0 -0 -0 -0 -0 -0 -0 -0 -0 -0 -0 -0 -0 -0 -0 -0
-0 -0 -0 -0 -0 -0 -0 -0 -0 -0 -0 -0 -0 -0 -0 -0 -0 -0 -0 -0 -0 -0 -0 -0 -0 -0 -0 -0 -0 -0 -0 -0 -0 -0 -0 -0 -0 -0 -0 -0 -0 -0 -0
-0 -0 -0 -0 -0 -0 -0 -0 -0 -0 -0 -0 -0 -0 -0 -0 -0 -0 -0 -0 -0 -0 -0 -0 -0 -0 -0 -0 -0 -0 -0 -0 -0 -0 -0 -0 -0 -0 -0 -0 -0 -0 -0
-0 -0 -0 -0 -0 -0 -0 -0 -0 -0 -0 -0 -0 -0 -0 -0 -0 -0 -0 -0 -0 -0 -0 -0 -0 -0 -0 -0 -0 -0 -0 -0 -0 -0 -0 -0 -0 -0 -0 -0 -0 -0 -0
-0 -0 -0 -0 -0 -0 -0 -0 -0 -0 -0 -0 -0 -0 -0 -0 -0 -0 -0 -0 -0 -0 -0 -0 -0 -0 -0 -0 -0 -0 -0 -0 -0 -0 -0 -0 -0 -0 -0 -0 -0 -0 -0
-0 -0 -0 -0 -0 -0 -0 -0 -0 -0 -0 -0 -0 -0 -0 -0 -0 -0 -0 -0 -0 -0 -0 -0 -0 -0 -0 -0 -0 -1 -8 -0 -0 -0 -0 -0 -0 -0 -0 -0 -0 -0 -0
-0 -0 -0 -0 -0 -0 -0 -0 -0 -0 -0 -0 -0 -0 -0 -0 -0 -0 -0 -0 -0 -0 -0 -0 -2 -1 -1 -2 -3 -7 -7 -4 -1 -9 -0 -0 -0 -0 -0 -0 -0 -0 -0
-0 -0 -0 -0 -0 -0 -0 -0 -0 -0 -0 -0 -0 -0 -0 -0 -0 -0 -0 -0 -0 -0 -0 -0 -4 -1 -1 -1 -2 -3 -1 -1 -2 -2 -5 -0 -0 -0 -0 -0 -0 -0 -0
-0 -0 -0 -0 -0 -0 -0 -0 -0 -0 -0 -0 -0 -0 -0 -0 -0 -0 -0 -0 -0 -0 -0 -0 -0 -0 -0 -0 -0 -3 -0 -0 -1 -2 -2 -0 -2 -0 -0 -0 -0 -0 -0
-0 -0 -0 -0 -0 -0 -0 -0 -0 -0 -0 -0 -0 -0 -0 -0 -0 -0 -1 -0 -0 -0 -1 -0 -0 -0 -0 -0 -0 -1 -1 -1 -1 -2 -6 -2 -1 -11 -3 -0 -0 -0 -0
-0 -0 -0 -0 -0 -0 -0 -0 -0 -0 -0 -0 -0 -0 -0 -0 -0 -0 -3 -1 -0 -0 -3 -4 -6 -8 -1 -3 -0 -2 -2 -1 -1 -0 -0 -9 -0 -0 -0 -0 -0 -0 -0
Wind_Speed
3 3 4 4 4 4 4 4 4 5 5 5 4 5 5 5 5 3 3 10 10 11 10 8 9 7 7 9 11 12 12 12 11 10 10 12 12 13 11 10 10 9 12
3 4 4 4 4 4 4 3 4 3 3 4 5 4 3 4 3 4 3 4 8 10 10 10 10 10 9 7 7 9 9 8 8 10 12 13 13 12 12 9 11 12 13
4 4 4 3 3 3 5 5 5 3 3 3 3 4 4 2 0 3 4 3 3 7 9 9 10 10 9 8 8 8 8 8 8 7 8 8 10 9 8 10 11 11 12
5 5 4 3 3 4 4 3 3 3 3 2 1 3 3 4 3 4 4 3 2 2 4 6 6 6 6 5 5 5 5 5 5 5 5 5 5 7 5 9 10 11 12
5 4 3 2 4 4 4 3 2 2 2 2 1 1 2 2 2 3 4 4 3 3 2 1 2 2 3 3 3 3 3 3 3 3 3 2 2 4 5 6 6 6 8
4 4 3 3 4 4 4 3 3 2 2 2 3 3 4 3 2 2 3 3 3 3 3 3 2 2 2 1 2 3 3 3 3 4 4 4 3 3 4 5 6 7 6
3 4 3 3 4 4 2 3 2 3 3 3 2 3 3 4 4 4 3 3 4 4 3 3 2 2 3 4 3 2 4 4 4 3 4 4 5 5 4 5 6 8 9
3 3 3 3 3 3 4 3 3 2 2 3 2 0 4 4 3 5 3 4 5 3 4 4 4 4 4 3 5 6 5 5 6 6 6 6 5 6 6 4 5 6 8
2 2 3 3 3 2 2 1 1 3 1 2 2 3 2 2 3 3 3 3 4 3 4 5 6 6 6 4 6 6 8 6 7 8 7 7 6 7 6 6 6 6 7
3 3 2 2 2 1 1 0 1 1 2 0 3 1 1 3 1 5 3 3 4 5 6 4 5 6 6 5 8 9 11 10 11 11 10 9 9 9 8 7 7 7 6
4 5 4 3 2 1 1 2 1 1 1 2 2 1 2 1 2 3 4 5 4 4 4 5 5 5 6 6 5 8 14 14 13 13 13 12 11 11 10 9 9 9 9
3 5 5 4 3 2 3 3 3 3 2 2 1 2 3 2 2 2 3 4 5 5 4 4 5 5 5 5 9 13 15 16 16 16 15 15 14 13 12 11 11 11 11
2 5 4 4 3 3 4 3 3 3 3 2 3 3 3 4 2 3 2 5 4 3 4 4 5 5 6 5 6 13 15 18 18 18 19 18 17 15 14 14 14 14 13
2 1 2 3 3 3 3 4 2 3 3 4 6 5 4 4 4 3 4 2 7 3 3 7 3 5 5 6 9 15 8 19 20 20 20 19 18 17 16 16 16 16 16
2 2 2 1 2 3 4 4 4 5 4 5 6 6 5 4 4 4 4 4 4 7 6 4 4 3 4 4 8 6 7 15 21 21 21 21 20 19 19 19 18 18 18
1 1 1 2 3 4 5 4 4 5 5 5 5 6 5 5 6 5 5 5 5 8 10 4 7 5 4 5 7 7 8 15 20 22 22 22 22 22 22 22 21 21 20
3 3 2 2 2 3 4 3 4 6 6 6 5 6 7 7 7 5 4 6 7 6 11 10 9 10 5 7 9 6 7 9 9 22 24 24 23 23 24 24 24 23 22
3 3 3 3 3 3 3 4 5 5 5 6 6 6 7 6 7 6 5 8 8 8 8 17 10 7 7 7 8 9 9 9 10 18 26 25 24 25 25 25 25 24 23
4 4 4 2 4 4 5 5 5 5 5 5 6 6 8 6 9 6 6 7 7 7 8 9 12 8 7 4 7 7 8 10 10 17 25 28 27 26 26 26 25 25 24
3 3 3 3 4 4 5 6 5 6 6 6 6 6 8 8 9 9 8 8 7 6 6 8 9 9 6 6 5 8 10 7 8 9 15 19 21 24 27 27 26 24 24
3 2 3 5 5 4 4 5 5 6 6 7 7 7 8 10 16 15 9 8 6 6 6 7 9 9 10 9 6 6 10 10 10 6 10 10 11 11 13 23 23 24 25
3 4 5 5 6 4 9 12 9 6 6 6 7 9 8 12 12 17 18 18 14 9 8 5 10 12 14 11 9 9 10 11 13 5 7 10 7 10 10 11 22 24 23
3 5 6 6 7 7 13 15 15 5 6 7 7 8 8 8 13 11 14 17 15 18 17 11 11 11 13 11 11 12 11 11 13 11 6 12 5 11 10 12 25 25 25
4 4 5 6 6 7 15 17 17 7 6 7 7 9 9 10 10 12 11 11 8 7 8 7 10 14 15 16 15 12 14 14 12 12 12 13 9 11 10 10 24 25 24
3 3 4 7 6 8 15 17 16 8 6 8 8 7 8 9 14 20 13 9 11 10 14 22 24 25 27 28 25 13 12 11 12 12 11 9 11 12 11 11 11 27 25
5 4 6 6 10 8 14 18 15 8 10 7 6 7 16 14 20 21 13 14 15 15 13 15 12 14 17 17 27 16 11 11 12 13 11 7 10 8 7 6 10 9 10
Wind_Direction
59 52 45 45 37 24 13 17 15 33 70 60 51 66 62 86 92 71 70 55 39 44 42 38 35 31 34 50 52 43 28 21 30 49 43 44 41 33 30 34 20 11 7
62 72 62 42 34 25 10 11 37 82 67 68 46 43 49 62 96 96 106 67 61 53 48 46 43 36 31 31 40 51 44 29 20 30 33 30 22 16 3 12 16 12 15
59 79 73 41 27 14 25 14 32 67 61 52 37 23 340 24 222 125 82 113 71 58 53 43 39 36 34 37 41 50 43 35 36 17 18 29 15 358 356 25 21 20 19
51 75 74 38 21 32 36 19 28 38 30 72 29 354 4 341 90 108 101 122 134 88 50 59 49 44 42 39 47 61 63 58 43 29 34 52 34 15 3 32 26 12 14
55 88 85 41 39 43 35 8 8 66 43 357 277 304 310 335 282 132 141 139 133 138 164 113 89 53 37 24 19 28 38 41 37 30 26 3 42 27 18 1 351 20 17
63 82 68 49 54 56 31 17 18 347 59 15 338 301 265 260 243 164 199 179 187 170 173 181 218 284 263 300 335 343 345 348 348 352 349 342 332 335 343 360 355 336 335
62 76 80 56 50 66 57 24 5 29 358 359 16 331 296 248 250 233 206 210 219 215 198 190 191 219 271 258 232 295 310 310 311 316 320 323 318 309 311 324 346 348 340
87 102 88 72 65 66 41 38 43 7 351 17 86 29 349 341 321 242 228 228 230 222 228 223 224 217 220 234 235 247 262 288 295 298 303 306 307 303 299 304 321 337 338
122 105 101 102 78 91 69 47 67 67 32 326 53 136 10 282 320 322 258 253 237 229 245 246 235 232 227 223 234 255 235 254 276 280 282 286 288 286 279 284 302 310 323
170 180 159 135 134 124 77 254 144 138 114 317 337 346 201 169 205 330 329 304 276 255 252 249 237 236 229 224 223 218 224 241 264 271 275 278 279 279 277 273 280 280 285
193 203 191 189 207 183 241 236 259 237 151 147 180 330 332 292 213 181 276 306 331 285 259 244 240 236 236 227 226 223 232 243 256 263 267 270 274 273 274 269 274 278 273
214 223 205 197 205 218 231 240 248 238 241 240 238 242 219 225 268 216 260 268 253 271 269 267 248 237 235 227 225 222 227 235 246 254 260 265 267 269 268 265 261 267 271
209 233 212 206 215 227 239 233 233 243 249 234 240 253 239 237 216 222 221 275 267 294 291 259 248 242 242 227 227 225 227 231 242 252 261 262 264 268 268 265 264 261 262
211 178 167 192 225 242 241 234 240 249 238 252 257 243 248 245 224 212 217 207 292 276 287 254 283 252 239 238 231 226 222 232 242 252 258 261 266 268 268 266 265 265 263
212 194 171 205 253 262 255 243 238 250 237 246 249 250 246 250 239 235 223 199 205 282 284 275 276 274 273 260 246 226 220 230 238 244 250 255 259 256 259 259 260 259 258
280 224 290 296 297 280 268 257 260 264 256 256 250 254 249 247 248 231 229 228 211 243 263 250 266 255 281 284 269 254 242 235 239 243 248 251 250 249 253 256 255 253 251
66 63 58 29 339 311 306 290 275 273 267 272 272 266 266 255 266 253 236 244 241 228 259 266 264 279 271 268 273 257 242 243 242 245 249 251 249 252 253 255 255 251 250
60 53 36 17 336 320 309 308 303 306 302 305 298 294 287 288 267 261 250 252 248 249 257 275 270 269 246 259 251 253 258 251 248 243 249 252 251 252 254 252 251 250 250
49 37 42 357 323 316 317 310 298 300 305 307 306 303 297 292 291 279 260 256 254 254 252 265 278 273 267 243 263 260 256 257 257 251 253 256 257 256 254 250 248 246 247
50 11 338 323 318 320 318 312 317 315 311 304 296 288 288 286 285 289 284 275 265 252 255 264 277 284 276 265 234 265 266 247 258 254 256 254 255 256 253 248 246 245 241
8 338 338 334 332 330 313 327 310 299 303 301 296 287 286 280 286 288 289 286 269 267 269 269 279 287 291 296 281 281 277 276 265 230 247 248 253 257 256 254 251 250 241
338 348 350 338 329 314 319 318 316 293 294 289 294 297 293 296 292 297 303 302 295 294 285 266 290 292 292 291 278 273 279 286 289 240 245 259 238 246 246 246 243 237 235
342 336 334 335 324 318 316 314 310 287 270 272 278 287 297 300 303 294 294 295 293 290 286 287 285 283 289 290 294 293 278 271 273 278 243 268 225 239 241 242 245 244 240
338 328 320 317 311 300 305 304 301 290 269 262 259 267 273 286 283 296 297 292 282 274 270 274 280 290 290 293 289 283 288 287 283 278 262 264 259 247 245 240 237 237 237
321 297 287 299 297 289 294 301 304 293 275 270 268 260 267 277 286 301 302 301 291 290 297 296 293 290 290 291 288 290 282 285 279 281 269 249 258 254 244 243 234 233 229
289 302 302 284 281 287 299 305 306 298 295 284 266 250 263 276 292 300 297 297 296 297 294 289 283 281 287 287 290 279 276 273 278 275 268 247 253 249 255 225 235 236 229